Mytilini, Greece

11:22 AM EET on November 17, 2018 (GMT +0200)
Odysseas Elytis

Weather History for LGMT - November, 2018

Change the Weather History Date:

Thursday, November 8, 2018

  Actual Average Record
Temperature  
Mean Temperature 58 °F -  
Max Temperature 64 °F 61 °F 75 °F (2000)
Min Temperature 51 °F 52 °F 46 °F (2007)
Degree Days  
Heating Degree Days 8    
Growing Degree Days 8 (Base 50)    
Moisture  
Dew Point 53 °F    
Average Humidity 76    
Maximum Humidity 88    
Minimum Humidity 62    
Precipitation  
Precipitation 0.00 in 0.14 in - ()
Sea Level Pressure  
Sea Level Pressure 30.09 in    
Wind  
Wind Speed 1 mph ()    
Max Wind Speed 5 mph    
Max Gust Speed -    
Visibility 6.2 miles    
Events      
Averages and records for this station are not official NWS values.
T = Trace of Precipitation, MM = Missing Value Source: Averaged Metar Reports

Daily Weather History Graph

Daily Weather History Graph

Search for Another Location

Airport or City:

Astronomy

Nov. 08, 2018 Rise Set
Actual Time 6:48 AM EET 5:05 PM EET
Civil Twilight 6:20 AM EET 5:33 PM EET
Nautical Twilight 5:48 AM EET 6:05 PM EET
Astronomical Twilight 5:17 AM EET 6:36 PM EET
Moon 7:16 AM EET (11/8) 5:58 PM EET (11/8)
Length of Visible Light 11h 13m
Length of Day
10h 17m
New Moon, 1% of the Moon is Illuminated
Nov 8
New Moon
Nov 15
First Quarter
Nov 23
Full
Nov 30
Last Quarter
Dec 7
New

Hourly Weather History & Observations

Time (EET) Temp. Dew Point Humidity Pressure Visibility Wind Dir Wind Speed Gust Speed Precip Events Conditions
6:20 AM 53.6 °F 50.0 °F 88% 30.09 in 6.2 mi Calm Calm - N/A   Partly Cloudy
6:50 AM 53.6 °F 50.0 °F 88% 30.09 in 6.2 mi Calm Calm - N/A   Partly Cloudy
7:20 AM 53.6 °F 50.0 °F 88% 30.09 in 6.2 mi Calm Calm - N/A   Partly Cloudy
7:50 AM 55.4 °F 51.8 °F 88% 30.09 in 6.2 mi Calm Calm - N/A   Partly Cloudy
8:00 AM 55 °F 52 °F 84% 30.11 in 6 mi Calm Calm - -   Scattered Clouds
8:20 AM 55.4 °F 51.8 °F 88% 30.09 in 6.2 mi Calm Calm - N/A   Partly Cloudy
8:50 AM 59.0 °F 53.6 °F 82% 30.12 in 6.2 mi Calm Calm - N/A   Partly Cloudy
9:20 AM 59.0 °F 53.6 °F 82% 30.12 in 6.2 mi Calm Calm - N/A   Partly Cloudy
9:50 AM 60.8 °F 53.6 °F 77% 30.12 in 6.2 mi Calm Calm - N/A   Partly Cloudy
10:20 AM 60.8 °F 53.6 °F 77% 30.12 in 6.2 mi Calm Calm - N/A   Partly Cloudy
10:50 AM 62.6 °F 55.4 °F 77% 30.12 in 6.2 mi Calm Calm - N/A   Partly Cloudy
11:00 AM 63 °F 55 °F 67% 30.14 in 6 mi Calm Calm - -   Scattered Clouds
11:20 AM 62.6 °F 55.4 °F 77% 30.12 in 6.2 mi Calm Calm - N/A   Partly Cloudy
11:50 AM 64.4 °F 55.4 °F 73% 30.12 in 6.2 mi Calm Calm - N/A   Partly Cloudy
12:20 PM 64.4 °F 55.4 °F 73% 30.09 in 6.2 mi Calm Calm - N/A   Partly Cloudy
12:50 PM 64.4 °F 55.4 °F 73% 30.09 in 6.2 mi Calm Calm - N/A   Partly Cloudy
1:20 PM 64.4 °F 55.4 °F 73% 30.09 in 6.2 mi Calm Calm - N/A   Partly Cloudy
1:50 PM 64.4 °F 55.4 °F 73% 30.09 in 6.2 mi Variable 3.5 mph - N/A   Partly Cloudy
2:00 PM 65 °F 55 °F 62% 30.10 in 6 mi North 3.5 mph - -   Scattered Clouds
2:20 PM 64.4 °F 55.4 °F 73% 30.09 in 6.2 mi NNW 4.6 mph - N/A   Partly Cloudy
2:50 PM 64.4 °F 55.4 °F 73% 30.06 in 6.2 mi NNW 4.6 mph - N/A   Scattered Clouds
3:20 PM 64.4 °F 55.4 °F 73% 30.06 in 6.2 mi NNW 4.6 mph - N/A   Scattered Clouds
3:50 PM 64.4 °F 55.4 °F 73% 30.06 in 6.2 mi NNW 4.6 mph - N/A   Scattered Clouds
4:20 PM 62.6 °F 53.6 °F 72% 30.06 in 6.2 mi Variable 2.3 mph - N/A   Scattered Clouds
4:50 PM 62.6 °F 53.6 °F 72% 30.06 in 6.2 mi Calm Calm - N/A   Scattered Clouds
5:00 PM 62 °F 53 °F 65% 30.08 in 6 mi Calm Calm - -   Partly Cloudy
5:20 PM 60.8 °F 51.8 °F 72% 30.06 in 6.2 mi Calm Calm - N/A   Scattered Clouds
5:50 PM 59.0 °F 50.0 °F 72% 30.06 in 6.2 mi Calm Calm - N/A   Scattered Clouds
6:20 PM 59.0 °F 50.0 °F 72% 30.06 in 6.2 mi Calm Calm - N/A   Scattered Clouds
6:50 PM 59.0 °F 50.0 °F 72% 30.06 in 6.2 mi Calm Calm - N/A   Scattered Clouds
7:20 PM 59.0 °F 50.0 °F 72% 30.06 in 6.2 mi Calm Calm - N/A   Scattered Clouds
7:50 PM 57.2 °F 50.0 °F 77% 30.06 in 6.2 mi Calm Calm - N/A   Scattered Clouds
8:00 PM 58 °F 50 °F 66% 30.08 in 6 mi Calm Calm - -   Partly Cloudy
8:20 PM 57.2 °F 50.0 °F 77% 30.06 in 6.2 mi Calm Calm - N/A   Scattered Clouds
9:20 PM 57.2 °F 50.0 °F 77% 30.06 in 6.2 mi Calm Calm - N/A   Scattered Clouds
9:50 PM 57.2 °F 48.2 °F 72% 30.06 in 6.2 mi Calm Calm - N/A   Partly Cloudy